TimeCEST,TemperatureF,Dew PointF,Humidity,Sea Level PressureIn,VisibilityMPH,Wind Direction,Wind SpeedMPH,Gust SpeedMPH,PrecipitationIn,Events,Conditions,WindDirDegrees,DateUTC
12:25 AM,51.8,48.2,88,29.83,6.2,SW,8.1,-,N/A,Rain,Light Rain,220,2012-10-05 22:25:00
12:55 AM,51.8,50.0,94,29.83,6.2,SW,10.4,-,N/A,Rain,Light Rain,230,2012-10-05 22:55:00
1:25 AM,50.0,48.2,94,29.80,6.2,SW,8.1,-,N/A,Rain,Light Rain,220,2012-10-05 23:25:00
1:55 AM,50.0,48.2,94,29.80,6.2,SSW,8.1,-,N/A,Rain,Light Rain,200,2012-10-05 23:55:00
2:00 AM,50,49,93,29.82,7,South,8.9,,,Rain,Light Rain,190,2012-10-06 00:00:00
2:25 AM,50.0,48.2,94,29.80,6.2,SSW,6.9,-,N/A,Rain,Light Rain,200,2012-10-06 00:25:00
2:55 AM,50.0,48.2,94,29.80,6.2,SSW,6.9,-,N/A,Rain,Light Rain,200,2012-10-06 00:55:00
3:25 AM,50.0,48.2,94,29.77,6.2,South,5.8,-,N/A,,Light Drizzle,170,2012-10-06 01:25:00
3:55 AM,48.2,48.2,100,29.77,3.1,Variable,2.3,-,N/A,Rain,Light Rain,0,2012-10-06 01:55:00
4:25 AM,48.2,48.2,100,29.77,3.7,Variable,2.3,-,N/A,Rain,Light Rain,0,2012-10-06 02:25:00
4:55 AM,48.2,48.2,100,29.74,6.2,East,3.5,-,N/A,,Light Drizzle,90,2012-10-06 02:55:00
5:00 AM,48,48,98,29.75,12,East,4.5,,,Rain,Drizzle,90,2012-10-06 03:00:00
5:25 AM,48.2,48.2,100,29.71,5.6,Variable,1.2,-,N/A,Rain,Light Rain,0,2012-10-06 03:25:00
5:55 AM,48.2,48.2,100,29.71,4.3,North,3.5,-,N/A,Rain,Rain,10,2012-10-06 03:55:00
6:25 AM,48.2,48.2,100,29.71,3.7,NW,3.5,-,N/A,Rain,Rain,320,2012-10-06 04:25:00
6:55 AM,48.2,48.2,100,29.71,3.7,NW,4.6,-,N/A,Rain,Rain,320,2012-10-06 04:55:00
7:25 AM,48.2,48.2,100,29.71,5.0,NNW,4.6,-,N/A,Rain,Rain,330,2012-10-06 05:25:00
7:55 AM,48.2,48.2,100,29.71,3.7,NNW,3.5,-,N/A,Rain,Rain,330,2012-10-06 05:55:00
8:00 AM,49,48,96,29.73,4,NNW,4.5,,,Rain,Rain,330,2012-10-06 06:00:00
8:25 AM,48.2,48.2,100,29.71,3.1,North,5.8,-,N/A,Rain,Light Rain,350,2012-10-06 06:25:00
8:55 AM,50.0,48.2,94,29.74,3.1,NNW,8.1,-,N/A,Rain,Rain,340,2012-10-06 06:55:00
9:25 AM,50.0,48.2,94,29.74,5.6,North,8.1,-,N/A,Rain,Light Rain,350,2012-10-06 07:25:00
9:55 AM,50.0,48.2,94,29.77,6.2,NNW,9.2,-,N/A,Rain,Light Rain,340,2012-10-06 07:55:00
10:25 AM,50.0,48.2,94,29.77,6.2,North,6.9,-,N/A,Rain,Light Rain,350,2012-10-06 08:25:00
10:55 AM,51.8,50.0,94,29.77,6.2,NNW,5.8,-,N/A,,Partly Cloudy,340,2012-10-06 08:55:00
11:00 AM,51,49,92,29.80,25,NNW,6.7,,,Rain,Rain,340,2012-10-06 09:00:00
11:25 AM,53.6,50.0,88,29.80,6.2,NW,5.8,-,N/A,,Scattered Clouds,310,2012-10-06 09:25:00
11:55 AM,53.6,50.0,88,29.80,6.2,NW,6.9,-,N/A,,Mostly Cloudy,320,2012-10-06 09:55:00
12:25 PM,55.4,50.0,82,29.83,6.2,NNW,5.8,-,N/A,,Scattered Clouds,330,2012-10-06 10:25:00
12:55 PM,55.4,48.2,77,29.83,6.2,NW,11.5,-,N/A,,Scattered Clouds,310,2012-10-06 10:55:00
1:25 PM,57.2,48.2,72,29.86,6.2,WNW,13.8,-,N/A,,Partly Cloudy,300,2012-10-06 11:25:00
1:55 PM,59.0,50.0,72,29.86,6.2,WNW,15.0,-,N/A,,Scattered Clouds,300,2012-10-06 11:55:00
2:00 PM,59,49,61,29.87,19,WNW,15.7,,,,Partly Cloudy,290,2012-10-06 12:00:00
2:25 PM,59.0,48.2,67,29.86,6.2,WNW,16.1,-,N/A,,Scattered Clouds,300,2012-10-06 12:25:00
2:55 PM,59.0,48.2,67,29.86,6.2,WNW,13.8,-,N/A,,Scattered Clouds,290,2012-10-06 12:55:00
3:25 PM,57.2,48.2,72,29.89,6.2,NW,13.8,-,N/A,,Scattered Clouds,310,2012-10-06 13:25:00
3:55 PM,59.0,46.4,63,29.89,6.2,WNW,12.7,-,N/A,,Partly Cloudy,300,2012-10-06 13:55:00
4:25 PM,57.2,48.2,72,29.89,6.2,WNW,12.7,-,N/A,,Partly Cloudy,290,2012-10-06 14:25:00
4:55 PM,57.2,46.4,67,29.92,6.2,WNW,11.5,-,N/A,,Partly Cloudy,300,2012-10-06 14:55:00
5:00 PM,57,46,58,29.92,25,WNW,11.2,,,,Overcast,300,2012-10-06 15:00:00
5:25 PM,57.2,46.4,67,29.92,6.2,WNW,10.4,-,N/A,,Partly Cloudy,300,2012-10-06 15:25:00
5:55 PM,55.4,46.4,72,29.92,6.2,WNW,9.2,-,N/A,,Partly Cloudy,300,2012-10-06 15:55:00
6:25 PM,53.6,46.4,77,29.92,6.2,WNW,8.1,-,N/A,,Partly Cloudy,300,2012-10-06 16:25:00
6:55 PM,51.8,44.6,76,29.95,6.2,WNW,6.9,-,N/A,,Partly Cloudy,290,2012-10-06 16:55:00
7:25 PM,50.0,44.6,82,29.95,6.2,WNW,5.8,-,N/A,,Partly Cloudy,300,2012-10-06 17:25:00
7:55 PM,50.0,44.6,82,29.95,6.2,WNW,5.8,-,N/A,,Partly Cloudy,290,2012-10-06 17:55:00
8:00 PM,48,44,80,29.96,28,WNW,6.7,,,,Partly Cloudy,300,2012-10-06 18:00:00
8:25 PM,48.2,44.6,87,29.95,6.2,WNW,4.6,-,N/A,,Partly Cloudy,300,2012-10-06 18:25:00
8:55 PM,48.2,44.6,87,29.95,6.2,WNW,4.6,-,N/A,,Partly Cloudy,290,2012-10-06 18:55:00
9:25 PM,48.2,42.8,82,29.98,6.2,WNW,4.6,-,N/A,,Partly Cloudy,290,2012-10-06 19:25:00
9:55 PM,48.2,44.6,87,29.98,6.2,WNW,3.5,-,N/A,,Scattered Clouds,300,2012-10-06 19:55:00
10:25 PM,46.4,42.8,87,29.98,6.2,NNW,2.3,-,N/A,,Partly Cloudy,330,2012-10-06 20:25:00
10:55 PM,46.4,44.6,93,29.98,6.2,Calm,Calm,-,N/A,,Partly Cloudy,0,2012-10-06 20:55:00
11:00 PM,46,44,90,29.99,22,Calm,Calm,,,,Scattered Clouds,,2012-10-06 21:00:00
11:25 PM,44.6,42.8,93,29.98,6.2,South,1.2,-,N/A,,Partly Cloudy,180,2012-10-06 21:25:00
11:55 PM,44.6,44.6,100,29.98,6.2,Variable,1.2,-,N/A,,Partly Cloudy,0,2012-10-06 21:55:00